Location: Austin, TX
(30.3000°N, 97.7500°W)
Time: 07:13:58
(UTC-05:00)

Cosmos 1666 - Visible Passes

Search period start: 26 September 2016 00:00
Search period end: 06 October 2016 00:00
Orbit: 504 x 526 km, 82.5° (Epoch: 25 September)

Date Brightness Start Highest point End Pass type
(mag) Time Alt. Az. Time Alt. Az. Time Alt. Az.
26 Sep 2.7 06:09:10 10° NNW 06:12:56 54° W 06:16:39 10° S visible
27 Sep 2.5 05:53:50 10° N 05:57:41 71° W 06:01:28 10° S visible
28 Sep 2.8 05:38:33 10° N 05:45:50 13° S 05:46:13 10° S visible
